Retour au catalogue

COSMOS 2251 DEB

ActifLEO
NORAD 34967·DEBRIS·🇷🇺 Russia

Lancé Jun 16, 1993 depuis Plesetsk Cosmodrome

Loading…

Prochains Passages (prochaines 24 heures)

TLE

FraisSource: Space-Track

Époque: Sep 13, 2026, 19:54 UTC

1 34967U 93036AEW 26256.82934791  .00001123  00000-0  32488-3 0  9999
2 34967  73.9901 100.1922 0039378 183.1222 176.9696 14.45257807689307

Suivez COSMOS 2251 DEB en temps réel avec AllMySat

Download on the App Store